Track IRIDIUM 138 now! 10-day predictions IRIDIUM 138 is classified as:
1 43071U 17083B 22224.38781806 .00000158 00000-0 49286-4 0 9994 2 43071 86.4005 188.8998 0002175 81.3728 278.7714 14.34217524242787